STARLINK-4173 (53285 NORAD) Tracking and Keplerian Element Data

This shows tracking and keplerian element data for the satellite.

Feedback or suggestion? Click here.




ElementValue
Catalog53285
NameSTARLINK-4173
Epoch Orbit130
Epoch Day269.91667824
Epoch Year2022
RAAN84.859
Inclination53.2171
Eccentricity0.0001566
Argument of Perigee36.9511
Mean Anonmoly42.5433
Mean Motion15.63855532
Decay Rate-0.01079504
L11 53285U 22086AV 22269.91667824 -.01079504 00000+0 -12408-1 0 9998
L22 53285 53.2171 84.8590 0001566 36.9511 42.5433 15.63855532 1309

Live tracking and technical data element details for STARLINK-4173 (NORAD 53285). STARLINK-4173 can be tracked NOW for your location showing map with azimuth and elevation plus other details from your city location.

Track the satellite on the map from your city or location and see movement details for azimuth, elevation, latitude, longitude, range, height, and movement on the map or in text.







IsCatalogInMostPopularTable: catalog: 53285, numindb: 3
Update: records affected: 1



GetName: 53285 STARLINK-4173

Hit Count: updated at: Thu, 29 Sep 2022 12:32:38 GMT